Location: Nakusp
(50.2330°N, 117.8000°W)
Time: 15:22:49
(UTC-07:00)

Daily predictions for brighter satellites

Satellite Brightness Start Highest point End
(mag) Time Altitude Azimuth Time Altitude Azimuth Time Altitude Azimuth
Cosmos 1709 Rocket 4.1 19:02:35 10° S 19:08:57 81° E 19:15:23 10° NNE
SKYMED 2 3.6 19:08:25 10° NNE 19:12:48 87° ESE 19:17:09 10° SSW
Cosmos 1674 4.5 19:11:47 10° NNE 19:13:57 14° ENE 19:16:04 10° E
Cosmos 1766 4.3 19:11:39 10° SE 19:14:52 25° E 19:18:07 10° NNE
USA 81 4.0 19:10:04 10° N 19:15:22 72° E 19:20:38 10° SSE
Cosmos 1953 Rocket 3.8 19:11:36 10° NNW 19:15:57 74° W 19:20:15 10° S
ATLAS 2AS CENTAUR R/B 3.7 19:08:23 10° NW 19:16:07 43° NNE 19:23:29 10° E
Meteor 2-5 Rocket 3.8 19:10:20 10° NNW 19:16:16 84° ENE 19:22:01 10° SSE
COSMOS 2406 3.9 19:12:04 10° SSE 19:17:02 32° ESE 19:22:02 10° NE
GP-B 4.5 19:13:58 10° NNE 19:17:12 19° ENE 19:20:25 10° SE
Cosmos 1606 Rocket 3.5 19:13:02 10° S 19:17:22 88° ESE 19:21:43 10° N
Cosmos 332 Rocket 4.4 19:12:58 10° SW 19:17:48 63° WNW 19:22:38 10° NNE
In-Cosmos 22 4.5 19:13:07 10° N 19:18:39 50° ENE 19:24:14 10° SSE
Resurs 01 Rocket 2.6 19:17:34 10° ESE 19:21:17 27° ENE 19:25:01 10° N
Cosmos 371 Rocket 3.8 19:16:43 10° SSW 19:21:36 69° WNW 19:26:30 10° NNE
Cosmos 841 Rocket 3.6 19:16:42 10° S 19:21:40 52° ESE 19:26:39 10° NNE
Cosmos 389 Rocket 2.9 19:19:24 10° SSW 19:22:52 68° WNW 19:26:21 10° N
Cosmos 468 Rocket 4.3 19:18:30 10° SSW 19:23:44 75° WNW 19:29:04 10° NNE
Cosmos 2058 Rocket 3.0 19:21:21 10° S 19:25:40 66° E 19:30:02 10° NNE
NOSS 3-1 (A) 4.3 19:18:22 10° NW 19:25:48 77° SW 19:34:06 10° SSE
SL-27 R/B 4.3 19:24:40 10° ESE 19:26:19 13° E 19:27:59 10° ENE
Cosmos 1271 Rocket 3.6 19:22:56 10° SSW 19:26:39 55° WNW 19:30:29 10° N
FengYun 1-2 T 4.2 19:27:04 10° SSE 19:32:39 76° ENE 19:38:13 10° NNW
USA 186 2.9 19:33:40 14° E 19:34:02 14° ENE 19:35:25 10° NNE
Cosmos 540 Rocket 4.0 19:29:46 10° SSE 19:34:22 35° ESE 19:39:01 10° NE
HJ-1C 3.5 19:31:30 10° SSE 19:34:47 56° ENE 19:38:06 10° N
Cosmos 1943 4.4 19:30:52 10° SW 19:36:18 45° NW 19:41:49 10° NNE
MOS 1-B Rocket 4.3 19:33:00 10° SE 19:38:28 41° ENE 19:43:42 10° N
Cosmos 1763 Rocket 3.5 19:34:45 10° SSW 19:39:53 89° WNW 19:45:08 10° NNE
Cosmos 2184 Rocket 4.1 19:34:45 10° S 19:40:57 62° E 19:47:15 10° NNE
Meteor 2-13 Rocket 4.5 19:36:45 10° S 19:42:50 89° E 19:48:57 10° N
Cosmos 1805 3.9 19:43:02 10° SSE 19:46:32 32° E 19:50:03 10° NNE
SL-08 ROCKET BODY 4.4 19:41:39 10° S 19:47:34 86° W 19:53:37 10° N
Cosmos 1939 Rocket 4.0 19:49:38 18° ESE 19:51:32 25° ENE 19:54:49 10° N
CZ-2D R/B 3.3 19:50:05 10° SSE 19:53:50 59° ENE 19:57:37 10° N
USA 267 3.8 19:49:06 10° ENE 19:55:27 56° NNW 20:01:50 10° W
Cosmos 2278 4.1 19:52:37 10° NNW 19:58:06 46° NE 20:02:00 18° ESE
Cosmos 2327 Rocket 4.4 19:53:33 10° S 19:59:37 75° E 20:05:43 10° NNE
COSMO-SKYMED 1 4.5 19:56:46 10° N 20:00:42 34° WNW 20:04:37 10° SW
BREEZE-M DEB (TANK) 4.1 19:51:54 10° SW 20:01:46 33° SSE 20:04:19 20° ESE
Cosmos 304 Rocket 3.9 19:57:39 10° SSW 20:02:27 80° WNW 20:07:18 10° NNE
ISS -1.8 20:01:41 10° S 20:02:58 15° SSE 20:02:58 15° SSE
Cosmos 1470 4.2 20:07:03 21° ENE 20:07:03 21° ENE 20:09:32 10° NE
Cosmos 2322 Rocket 4.2 20:05:32 10° N 20:08:33 14° NNE 20:11:28 10° ENE
Thor Agena Rocket 4.0 20:06:05 10° N 20:11:19 67° WNW 20:16:28 10° SSW
Cosmos 2084 3.8 20:08:19 10° WSW 20:12:15 58° NW 20:16:03 10° NE
Spot 2 Rocket 3.4 20:08:24 10° SSE 20:13:25 71° ENE 20:18:28 10° NNW
Cosmos 1656 4.0 20:08:36 10° NNW 20:14:08 49° NE 20:17:15 25° ESE
Cosmos 1697 Rocket 3.3 20:12:21 10° NNW 20:17:41 40° NE 20:20:16 26° E
Cosmos 1076 Rocket 3.9 20:14:03 10° N 20:18:15 43° ENE 20:19:55 29° SE
Cosmos 836 Rocket 4.4 20:13:59 10° SSW 20:19:16 84° ESE 20:24:33 10° NNE
SJ 16-02 1.5 20:14:56 10° NNW 20:19:20 73° WSW 20:23:17 12° SSE
Cosmos 1980 Rocket 3.3 20:14:34 10° NNW 20:19:26 29° NE 20:21:37 22° E
SJ-6B 4.2 20:17:29 10° S 20:21:15 40° W 20:24:57 10° NNW
Cosmos 1953 2.4 20:22:55 13° S 20:26:20 52° E 20:30:19 10° NNE
Cosmos 1356 4.2 20:24:34 10° NNW 20:27:59 52° W 20:31:16 11° S
Resurs 1-3 3.7 20:26:49 11° S 20:30:58 76° WSW 20:35:22 10° NNW
YAOGAN 6 2.8 20:31:35 45° E 20:31:47 46° ENE 20:35:17 10° N
Cosmos 783 Rocket 4.4 20:27:41 10° S 20:32:47 59° ESE 20:37:54 10° NNE
ERS-1 Rocket 3.8 20:32:12 29° E 20:33:02 30° ENE 20:37:24 10° N
Cosmos 1818 4.2 20:29:03 10° NNW 20:34:14 41° NE 20:36:12 31° E
SL-14 R/B 4.0 20:32:17 10° N 20:35:34 34° ENE 20:35:34 34° ENE
Cosmos 1544 4.2 20:33:34 10° SSW 20:37:03 45° WNW 20:40:34 10° N
BREEZE-M DEB (TANK) 4.4 20:12:26 10° W 20:37:27 87° S 20:40:50 30° E
SJ-11-01 4.2 20:35:49 31° SSE 20:38:01 70° ENE 20:42:45 10° N
Cosmos 1626 4.3 20:42:25 10° NNE 20:43:32 15° NE 20:43:32 15° NE
Envisat 3.2 20:41:27 13° S 20:45:57 70° WSW 20:51:04 10° NNW
Cosmos 2154 Rocket 4.0 20:40:08 10° S 20:46:22 83° W 20:52:43 10° N
SL-16 R/B 3.7 20:43:17 10° NNW 20:47:35 21° NE 20:48:58 20° ENE
ARGOS 3.9 20:46:56 33° ENE 20:47:37 34° ENE 20:52:29 10° N
Cosmos 1674 3.2 20:46:15 10° NNW 20:49:55 55° W 20:51:42 27° SSW
Cosmos 1408 Rocket 3.6 20:45:53 10° N 20:50:08 52° ENE 20:50:11 52° ENE
Terra 4.0 20:51:43 12° NE 20:51:43 12° NE 20:53:02 10° NNE
Cosmos 1900 4.3 20:48:26 10° SSW 20:53:33 77° SE 20:58:44 10° NE
GP-B 3.9 20:50:31 10° N 20:54:51 52° W 20:59:09 10° SSW
NOAA 11 4.3 20:53:50 45° ESE 20:55:09 57° ENE 21:00:29 10° N
Cosmos 1812 Rocket 4.5 20:50:57 10° SSW 20:55:18 50° WNW 20:59:41 10° N
Resurs 01 Rocket 2.9 20:53:28 10° SSW 20:57:37 40° W 21:01:49 10° NNW
Cosmos 2341 Rocket 3.9 20:54:00 10° S 21:00:13 90° W 21:06:31 10° N
SL-27 R/B 3.0 20:57:27 10° SW 21:01:01 60° WNW 21:04:41 10° NNE
COSMOS 2406 4.0 20:55:31 10° SW 21:01:06 53° NW 21:06:45 10° NNE
Cosmos-2242 4.5 21:05:40 26° NE 21:05:40 26° NE 21:07:44 10° NNE
USA 186 4.1 21:05:15 17° WNW 21:05:15 17° WNW 21:06:30 10° NW
Iridium 4 Rocket 4.5 21:09:03 29° NE 21:09:03 29° NE 21:12:00 10° NNE
ATLAS 2AS CENTAUR R/B 3.0 20:59:48 10° NW 21:07:55 81° SW 21:11:15 38° SSE
Cosmos 2369 4.0 21:02:36 10° NW 21:08:12 62° WSW 21:10:34 34° S
H-2A R/B 2.9 21:08:51 33° NE 21:08:51 33° NE 21:12:55 10° N
Spot 1 4.2 21:11:03 58° NNE 21:11:03 58° NNE 21:14:35 10° N
Meteor 2-21 4.3 21:06:46 19° S 21:11:21 79° E 21:17:28 10° NNE
Cosmos 1758 4.4 21:07:34 10° SSW 21:11:24 44° WNW 21:15:15 10° N
Cosmos 1959 Rocket 4.4 21:10:49 45° SSE 21:12:38 64° E 21:18:52 10° NNE
Helios 1A 2.9 21:13:42 79° N 21:13:42 79° N 21:17:40 10° NNW
Cosmos 1733 3.6 21:15:46 60° NW 21:15:46 60° NW 21:19:13 10° N
Cosmos 1833 Rocket 4.3 21:19:19 21° NE 21:19:19 21° NE 21:21:10 10° NE
Meteor 1-11 4.2 21:13:19 10° N 21:19:08 68° ENE 21:19:43 63° ESE
Cosmos 1766 Rocket 3.6 21:14:48 10° NNW 21:19:10 75° W 21:19:13 75° WSW
Cosmos 1743 Rocket 4.5 21:15:34 10° N 21:18:29 37° NNE 21:18:29 37° NNE
NOSS 3-4 (A) 4.2 21:13:18 10° NW 21:19:55 50° NE 21:21:49 41° ENE
NOSS 3-4 (C) 4.2 21:13:24 10° NW 21:20:01 50° NE 21:21:55 41° ENE
Cosmos 2366 rocket 3.9 21:18:51 54° SE 21:20:06 66° E 21:26:20 10° NNE
Meteor 2-15 Rocket 4.4 21:14:52 10° NNW 21:20:59 82° W 21:23:09 42° S
Cosmos 2084 Rocket 3.9 21:19:00 10° NW 21:21:57 50° NW 21:21:57 50° NW
Cosmos 2218 Rocket 3.8 21:23:24 47° S 21:25:18 78° E 21:31:30 10° NNE
Cosmos 1939 Rocket 4.2 21:25:32 31° WSW 21:26:21 34° W 21:30:00 10° NNW
Cosmos 2285 Rocket 3.9 21:21:44 10° SSW 21:28:11 87° ESE 21:34:41 10° NNE
BREEZE-M DEB (TANK) 4.4 21:23:31 10° W 21:28:38 71° SSW 21:34:15 39° SE
SPOT 5 3.8 21:30:43 34° NNE 21:30:43 34° NNE 21:33:36 10° N
Meteor 1-16 Rocket 4.4 21:31:56 53° NE 21:31:56 53° NE 21:36:07 10° NNE
Cosmos 2360 4.1 21:26:52 10° NNW 21:32:36 71° ENE 21:32:41 71° ENE
SL-08 R/B 4.3 21:33:16 64° SSE 21:34:15 78° E 21:40:30 10° NNE
Cosmos 1538 Rocket 4.2 21:37:08 61° NNE 21:37:08 61° NNE 21:41:27 10° NNE
USA 267 3.8 21:35:23 34° ENE 21:37:57 51° N 21:44:15 10° WNW
Cosmos 2082 Rocket 3.4 21:42:52 30° NE 21:42:52 30° NE 21:45:41 10° NNE
MetOp-B 4.0 21:40:36 87° WNW 21:40:36 87° WNW 21:45:57 10° NNW
Cosmos 1470 4.2 21:42:23 37° WNW 21:42:23 37° WNW 21:46:05 10° N
BREEZE M DEB (TANK) 4.0 21:27:56 10° W 21:43:53 84° S 21:44:29 74° ESE
Cosmos 1727 Rocket 4.0 21:40:22 10° NNW 21:46:41 78° W 21:47:42 63° SSW
SL-8 Rocket 4.2 21:44:02 26° SSW 21:47:36 65° WNW 21:53:46 10° N
Meteor 2-16 Rocket 4.3 21:46:52 68° SSW 21:47:42 84° W 21:53:51 10° N
Cosmos 2322 Rocket 2.9 21:48:42 10° NNW 21:53:17 42° NNE 21:53:17 42° NNE
Cosmos 1697 Rocket 3.5 21:56:23 10° NW 22:01:44 44° WSW 22:02:01 43° WSW
Cosmos 2360 Rocket 3.6 21:57:13 10° NNW 22:01:20 27° NNE 22:01:20 27° NNE
Cosmos 1980 Rocket 2.5 21:58:18 10° NNW 22:03:24 63° W 22:03:24 63° W
ERS-1 Rocket 3.9 22:12:13 43° W 22:12:13 43° W 22:16:30 10° NNW
SPOT 1/Viking Rocket 4.4 22:15:59 46° NNW 22:15:59 46° NNW 22:19:36 10° NNW
Cosmos 2056 Rocket 4.5 22:12:27 10° NNW 22:16:13 44° N 22:16:13 44° N
COSMOS 2428 4.5 22:20:28 10° NNW 22:24:13 22° NNE 22:24:13 22° NNE
ARGOS 4.2 22:28:27 41° WNW 22:28:27 41° WNW 22:32:57 10° NNW
Terra 3.6 22:30:36 27° N 22:30:36 27° N 22:32:46 10° N
Cosmos 2333 Rocket 4.3 22:27:32 10° N 22:31:11 17° NNE 22:31:11 17° NNE
SL-16 R/B 3.1 22:26:53 10° NNW 22:30:50 46° NNW 22:30:50 46° NNW
H-2A R/B 3.7 22:49:30 30° NW 22:49:30 30° NW 22:52:30 10° NNW
ATLAS 2AS CENTAUR R/B 4.5 22:52:01 10° WNW 22:57:49 23° WSW 22:58:42 22° WSW
Cosmos 1833 Rocket 4.1 23:00:56 34° NNW 23:00:56 34° NNW 23:05:05 10° NNE
Cosmos 2237 Rocket 4.3 22:58:45 10° N 23:02:04 18° NNE 23:02:04 18° NNE
Cosmos 2219 Rocket 4.1 23:02:10 10° NNW 23:05:08 23° NNE 23:05:08 23° NNE
CZ-3A R/B 4.0 22:53:02 10° WNW 23:09:31 74° WSW 23:09:31 74° WSW
USA 267 4.0 23:22:44 47° NW 23:22:44 47° NW 23:27:11 10° WNW
Cosmos 2082 Rocket 4.0 23:24:39 28° NW 23:24:39 28° NW 23:29:30 10° NNE
Cosmos 2322 Rocket 4.3 23:32:59 10° NW 23:35:05 21° NW 23:35:05 21° NW
Cosmos 2360 Rocket 4.2 23:40:57 10° NNW 23:43:05 24° NW 23:43:05 24° NW
